When you browse on this site, cookies collect data to enhance your experience and personalize the content and advertising you see.
Visit our Privacy Policy to learn more. By continuing to use the site, you agree to this use of cookies and data.
  • In Latvia
  • List of Countries
  • For 7 days
  • Water Temperature
  • Satellite Maps
  • Weather Map
  • Weather Widgets
  • user-avatar
    Login

    Hourly Weather Zapalow

    Today, 26 May, Sunday

    Time Temperature Precipitation Wind Pressure Humidity
    00:00 +14°C° 0 mm 2 mps 741 mmHg 89%
    01:00 +13°C° 0 mm 2 mps 742 mmHg 91%
    02:00 +13°C° 0 mm 1 mps 741 mmHg 91%
    03:00 +13°C° 0 mm 1 mps 742 mmHg 92%
    04:00 +12°C° 0 mm 2 mps 742 mmHg 92%
    05:00 +12°C° 0 mm 2 mps 742 mmHg 93%
    06:00 +14°C° 0 mm 2 mps 742 mmHg 88%
    07:00 +16°C° 0 mm 2 mps 742 mmHg 84%
    08:00 +17°C° 0 mm 2 mps 742 mmHg 79%
    09:00 +18°C° 0.4 mm 2 mps 742 mmHg 76%
    10:00 +20°C° 0.4 mm 3 mps 742 mmHg 72%
    11:00 +21°C° 0.4 mm 3 mps 742 mmHg 68%
    12:00 +21°C° 0.5 mm 3 mps 742 mmHg 68%
    13:00 +22°C° 0.5 mm 4 mps 742 mmHg 67%
    14:00 +22°C° 0.5 mm 4 mps 742 mmHg 66%
    15:00 +22°C° 0.3 mm 4 mps 742 mmHg 67%
    16:00 +22°C° 0.3 mm 3 mps 742 mmHg 68%
    17:00 +22°C° 0.3 mm 3 mps 742 mmHg 69%
    18:00 +20°C° 0.7 mm 3 mps 741 mmHg 75%
    19:00 +19°C° 0.7 mm 2 mps 741 mmHg 80%
    20:00 +18°C° 0.7 mm 2 mps 741 mmHg 86%
    21:00 +17°C° 0 mm 2 mps 741 mmHg 88%
    22:00 +16°C° 0 mm 2 mps 742 mmHg 90%
    23:00 +15°C° 0 mm 2 mps 742 mmHg 91%

    Tomorrow, 27 May, Monday

    Time Temperature Precipitation Wind Pressure Humidity
    00:00 +15°C° 0 mm 2 mps 742 mmHg 92%
    01:00 +15°C° 0 mm 2 mps 742 mmHg 92%
    02:00 +14°C° 0 mm 2 mps 742 mmHg 92%
    03:00 +14°C° 0 mm 2 mps 741 mmHg 93%
    04:00 +14°C° 0 mm 2 mps 741 mmHg 93%
    05:00 +14°C° 0 mm 2 mps 741 mmHg 93%
    06:00 +16°C° 0 mm 2 mps 741 mmHg 89%
    07:00 +18°C° 0 mm 3 mps 741 mmHg 85%
    08:00 +19°C° 0 mm 3 mps 741 mmHg 81%
    09:00 +21°C° 0.1 mm 4 mps 741 mmHg 75%
    10:00 +22°C° 0.1 mm 4 mps 741 mmHg 69%
    11:00 +25°C° 0.1 mm 5 mps 741 mmHg 64%
    12:00 +25°C° 0 mm 5 mps 741 mmHg 63%
    13:00 +25°C° 0 mm 5 mps 741 mmHg 62%
    14:00 +26°C° 0 mm 5 mps 741 mmHg 61%
    15:00 +25°C° 0 mm 4 mps 741 mmHg 63%
    16:00 +25°C° 0 mm 4 mps 740 mmHg 65%
    17:00 +25°C° 0 mm 3 mps 740 mmHg 67%
    18:00 +24°C° 0.2 mm 3 mps 740 mmHg 72%
    19:00 +21°C° 0.2 mm 2 mps 740 mmHg 77%
    20:00 +20°C° 0.2 mm 2 mps 740 mmHg 82%
    21:00 +19°C° 0.3 mm 2 mps 740 mmHg 85%
    22:00 +18°C° 0.3 mm 2 mps 740 mmHg 89%
    23:00 +17°C° 0.3 mm 2 mps 739 mmHg 92%

    Day after tomorrow, 28 May, Tuesday

    Time Temperature Precipitation Wind Pressure Humidity
    00:00 +18°C° 0.3 mm 3 mps 739 mmHg 92%
    01:00 +18°C° 0.3 mm 3 mps 739 mmHg 93%
    02:00 +18°C° 0.3 mm 3 mps 739 mmHg 93%
    03:00 +18°C° 0.5 mm 3 mps 739 mmHg 93%
    04:00 +18°C° 0.5 mm 4 mps 738 mmHg 93%
    05:00 +18°C° 0.5 mm 4 mps 738 mmHg 93%
    06:00 +19°C° 0 mm 4 mps 738 mmHg 90%
    07:00 +20°C° 0 mm 4 mps 738 mmHg 87%
    08:00 +21°C° 0 mm 4 mps 738 mmHg 83%
    09:00 +22°C° 0.2 mm 4 mps 737 mmHg 77%
    10:00 +25°C° 0.2 mm 4 mps 737 mmHg 71%
    11:00 +26°C° 0.2 mm 3 mps 737 mmHg 64%
    12:00 +25°C° 2.9 mm 3 mps 737 mmHg 70%
    13:00 +24°C° 2.9 mm 3 mps 736 mmHg 76%
    14:00 +22°C° 2.9 mm 3 mps 736 mmHg 82%
    15:00 +22°C° 0.7 mm 3 mps 736 mmHg 82%
    16:00 +24°C° 0.7 mm 2 mps 735 mmHg 82%
    17:00 +24°C° 0.7 mm 2 mps 735 mmHg 82%
    18:00 +22°C° 0.3 mm 3 mps 735 mmHg 84%
    19:00 +21°C° 0.3 mm 3 mps 734 mmHg 86%
    20:00 +20°C° 0.3 mm 3 mps 734 mmHg 88%
    21:00 +19°C° 0 mm 3 mps 734 mmHg 89%
    22:00 +18°C° 0 mm 3 mps 734 mmHg 89%
    23:00 +17°C° 0 mm 3 mps 734 mmHg 90%

    29 May, Wednesday

    Time Temperature Precipitation Wind Pressure Humidity
    00:00 +17°C° 0 mm 3 mps 734 mmHg 90%
    01:00 +16°C° 0 mm 3 mps 734 mmHg 91%
    02:00 +16°C° 0 mm 2 mps 734 mmHg 91%
    03:00 +16°C° 0 mm 3 mps 735 mmHg 92%
    04:00 +14°C° 0 mm 3 mps 735 mmHg 93%
    05:00 +14°C° 0 mm 3 mps 735 mmHg 95%
    06:00 +16°C° 0 mm 3 mps 736 mmHg 93%
    07:00 +16°C° 0 mm 3 mps 736 mmHg 91%
    08:00 +17°C° 0 mm 4 mps 736 mmHg 89%
    09:00 +18°C° 0 mm 4 mps 737 mmHg 84%
    10:00 +19°C° 0 mm 4 mps 737 mmHg 80%
    11:00 +20°C° 0 mm 4 mps 738 mmHg 75%
    12:00 +20°C° 0 mm 4 mps 738 mmHg 75%
    13:00 +20°C° 0 mm 4 mps 739 mmHg 76%
    14:00 +19°C° 0 mm 4 mps 739 mmHg 76%
    15:00 +19°C° 0 mm 4 mps 739 mmHg 77%
    16:00 +18°C° 0 mm 4 mps 739 mmHg 78%
    17:00 +18°C° 0 mm 4 mps 740 mmHg 79%
    18:00 +17°C° 0.2 mm 4 mps 740 mmHg 83%
    19:00 +16°C° 0.2 mm 3 mps 740 mmHg 86%
    20:00 +14°C° 0.2 mm 3 mps 741 mmHg 90%
    21:00 +14°C° 0.1 mm 3 mps 741 mmHg 91%
    22:00 +13°C° 0.1 mm 3 mps 741 mmHg 92%
    23:00 +14°C° 0.1 mm 2 mps 742 mmHg 93%

    30 May, Thursday

    Time Temperature Precipitation Wind Pressure Humidity
    00:00 +13°C° 0 mm 2 mps 742 mmHg 93%
    01:00 +13°C° 0 mm 2 mps 742 mmHg 93%
    02:00 +13°C° 0 mm 2 mps 743 mmHg 94%
    03:00 +13°C° 0.1 mm 2 mps 743 mmHg 93%
    04:00 +11°C° 0.1 mm 3 mps 743 mmHg 93%
    05:00 +11°C° 0.1 mm 3 mps 743 mmHg 93%
    06:00 +11°C° 1 mm 3 mps 744 mmHg 93%
    07:00 +11°C° 1 mm 3 mps 744 mmHg 93%
    08:00 +11°C° 1 mm 3 mps 745 mmHg 93%
    09:00 +11°C° 1.2 mm 3 mps 745 mmHg 93%
    10:00 +11°C° 1.2 mm 4 mps 745 mmHg 92%
    11:00 +11°C° 1.2 mm 4 mps 746 mmHg 91%
    12:00 +12°C° 0.1 mm 4 mps 746 mmHg 88%
    13:00 +12°C° 0.1 mm 4 mps 747 mmHg 86%
    14:00 +12°C° 0.1 mm 4 mps 747 mmHg 83%
    15:00 +13°C° 0 mm 4 mps 747 mmHg 80%
    16:00 +13°C° 0 mm 3 mps 747 mmHg 77%
    17:00 +13°C° 0 mm 3 mps 747 mmHg 74%
    18:00 +13°C° 0 mm 3 mps 747 mmHg 76%
    19:00 +13°C° 0 mm 2 mps 748 mmHg 79%
    20:00 +13°C° 0 mm 2 mps 748 mmHg 82%
    21:00 +12°C° 0 mm 2 mps 748 mmHg 84%
    22:00 +10°C° 0 mm 2 mps 748 mmHg 87%
    23:00 +9°C° 0 mm 2 mps 748 mmHg 89%

    31 May, Friday

    Time Temperature Precipitation Wind Pressure Humidity
    00:00 +9°C° 0 mm 2 mps 748 mmHg 90%
    01:00 +9°C° 0 mm 2 mps 748 mmHg 91%
    02:00 +8°C° 0 mm 2 mps 748 mmHg 91%
    03:00 +8°C° 0 mm 2 mps 748 mmHg 91%
    04:00 +8°C° 0 mm 2 mps 748 mmHg 91%
    05:00 +8°C° 0 mm 1 mps 749 mmHg 91%
    06:00 +9°C° 0 mm 2 mps 749 mmHg 85%
    07:00 +12°C° 0 mm 2 mps 749 mmHg 80%
    08:00 +14°C° 0 mm 2 mps 749 mmHg 75%
    09:00 +15°C° 0 mm 2 mps 749 mmHg 69%
    10:00 +17°C° 0 mm 2 mps 749 mmHg 64%
    11:00 +18°C° 0 mm 3 mps 748 mmHg 59%
    12:00 +19°C° 0 mm 3 mps 748 mmHg 56%
    13:00 +19°C° 0 mm 3 mps 748 mmHg 53%
    14:00 +20°C° 0 mm 3 mps 748 mmHg 50%
    15:00 +20°C° 0 mm 3 mps 748 mmHg 52%
    16:00 +20°C° 0 mm 3 mps 748 mmHg 54%
    17:00 +20°C° 0 mm 3 mps 748 mmHg 57%
    18:00 +19°C° 0 mm 3 mps 748 mmHg 63%
    19:00 +17°C° 0 mm 2 mps 748 mmHg 70%
    20:00 +16°C° 0 mm 2 mps 748 mmHg 77%
    21:00 +15°C° 0 mm 2 mps 749 mmHg 83%
    22:00 +14°C° 0 mm 2 mps 749 mmHg 88%
    23:00 +11°C° 0 mm 3 mps 750 mmHg 94%
    Show more